Multibeam Report for CE07_01


Ship Name: Celtic Explorer
Chief Scientist: Sacchetti, F.
Geological Survey of Ireland
Source Organization: Geological Survey of Ireland (GSI)
Start Date: 2007-04-18
End Date: 2007-05-15


View ISO Metadata

Visit the full NCEI Bathymetry Viewer


Multibeam Bathymetry

Cruise Details

Project: INFOMAR
Instrument: Simrad EM1002

Data Quality

Number of Files: 184
Number of Records: 1932958
BATHYMETRY DATA Quantity Percentage
Number of Beams 214558338 100%
Number of Good Beams 214076993 99.78%
Number of Zero Beams 481345 0.22%
Number of Flagged Beams 0 0%
AMPLITUDE DATA Quantity Percentage
Number of Beams 214558338 100%
Number of Good Beams 214076993 99.78%
Number of Zero Beams 481345 0.22%
Number of Flagged Beams 0 0%
SIDESCAN DATA Quantity Percentage
Number of Pixels 1979348992 100%
Number of Good Pixels 1626284641 82.16%
Number of Zero Pixels 0 0%
Number of Flagged Pixels 353064351 17.84%

Navigation Totals

Total Time: 359.7169 hours
Total Track Length: 5777.005 km
Average Speed: 16.06 km/hr (8.6717 knots)

Cruise Bounds

Northern Extent: 53.132347
Southern Extent: 50.62861
Western Extent: -11.688294
Eastern Extent: -6.251083

Limits

Minimum Sonar Depth 0.59 Maximum Sonar Depth 10.35
Minimum Altitude 0 Maximum Altitude 249.31
Minimum Depth 16.56 Maximum Depth 276.82
Minimum Amplitude -64 Maximum Amplitude 18.5
Minimum Sidescan -64 Maximum Sidescan 36.66

File Information

Full Resolution Bathymetry as collected (raw): 183

Files File Size Description
8000_20070419_081211_raw.mb56.gz 183.65MB Simrad multibeam vendor format
8001_20070419_160917_raw.mb56.gz 107.40MB Simrad multibeam vendor format
8002_20070419_211709_raw.mb56.gz 67.14MB Simrad multibeam vendor format
8003_20070420_000552_raw.mb56.gz 63.81MB Simrad multibeam vendor format
8004_20070420_021651_raw.mb56.gz 59.46MB Simrad multibeam vendor format
8005_20070420_043410_raw.mb56.gz 30.21MB Simrad multibeam vendor format
8006_20070420_065755_raw.mb56.gz 29.93MB Simrad multibeam vendor format
8007_20070420_090814_raw.mb56.gz 64.32MB Simrad multibeam vendor format
8008_20070420_112930_raw.mb56.gz 60.72MB Simrad multibeam vendor format
8009_20070420_141517_raw.mb56.gz 60.33MB Simrad multibeam vendor format
8010_20070420_170030_raw.mb56.gz 57.24MB Simrad multibeam vendor format
8011_20070420_195609_raw.mb56.gz 56.50MB Simrad multibeam vendor format
8012_20070420_220130_raw.mb56.gz 55.22MB Simrad multibeam vendor format
8013_20070421_002937_raw.mb56.gz 60.18MB Simrad multibeam vendor format
8014_20070421_025756_raw.mb56.gz 56.53MB Simrad multibeam vendor format
8015_20070421_051704_raw.mb56.gz 60.58MB Simrad multibeam vendor format
8016_20070421_075915_raw.mb56.gz 58.53MB Simrad multibeam vendor format
8017_20070421_102258_raw.mb56.gz 63.38MB Simrad multibeam vendor format
8018_20070421_125319_raw.mb56.gz 56.40MB Simrad multibeam vendor format
8019_20070421_154009_raw.mb56.gz 71.75MB Simrad multibeam vendor format
8020_20070421_181232_raw.mb56.gz 62.61MB Simrad multibeam vendor format
8021_20070421_202343_raw.mb56.gz 67.97MB Simrad multibeam vendor format
8022_20070421_224211_raw.mb56.gz 64.07MB Simrad multibeam vendor format
8023_20070422_011252_raw.mb56.gz 63.53MB Simrad multibeam vendor format
8024_20070422_033136_raw.mb56.gz 62.42MB Simrad multibeam vendor format
8025_20070422_055350_raw.mb56.gz 63.31MB Simrad multibeam vendor format
8026_20070422_081125_raw.mb56.gz 64.24MB Simrad multibeam vendor format
8027_20070422_164944_raw.mb56.gz 63.40MB Simrad multibeam vendor format
8028_20070422_190512_raw.mb56.gz 64.30MB Simrad multibeam vendor format
8029_20070422_212836_raw.mb56.gz 65.11MB Simrad multibeam vendor format
8030_20070422_235241_raw.mb56.gz 65.77MB Simrad multibeam vendor format
8031_20070423_022156_raw.mb56.gz 84.80MB Simrad multibeam vendor format
8032_20070423_050730_raw.mb56.gz 82.10MB Simrad multibeam vendor format
8033_20070423_183941_raw.mb56.gz 77.66MB Simrad multibeam vendor format
8034_20070423_205649_raw.mb56.gz 84.87MB Simrad multibeam vendor format
8035_20070423_233059_raw.mb56.gz 81.08MB Simrad multibeam vendor format
8036_20070424_020125_raw.mb56.gz 83.64MB Simrad multibeam vendor format
8037_20070424_043108_raw.mb56.gz 79.12MB Simrad multibeam vendor format
8038_20070424_065533_raw.mb56.gz 81.30MB Simrad multibeam vendor format
8039_20070424_092952_raw.mb56.gz 80.61MB Simrad multibeam vendor format
8040_20070424_124143_raw.mb56.gz 50.84MB Simrad multibeam vendor format
8041_20070424_161854_raw.mb56.gz 23.27MB Simrad multibeam vendor format
8042_20070424_205205_raw.mb56.gz 24.59MB Simrad multibeam vendor format
8043_20070424_220722_raw.mb56.gz 48.08MB Simrad multibeam vendor format
8044_20070425_004751_raw.mb56.gz 51.43MB Simrad multibeam vendor format
8045_20070425_031211_raw.mb56.gz 82.30MB Simrad multibeam vendor format
8046_20070425_055445_raw.mb56.gz 2.23MB Simrad multibeam vendor format
8047_20070425_094544_raw.mb56.gz 81.33MB Simrad multibeam vendor format
8048_20070425_120859_raw.mb56.gz 96.28MB Simrad multibeam vendor format
8049_20070425_145818_raw.mb56.gz 37.75MB Simrad multibeam vendor format
8050_20070425_171124_raw.mb56.gz 135.65MB Simrad multibeam vendor format
8051_20070425_205131_raw.mb56.gz 167.36MB Simrad multibeam vendor format
8052_20070426_005520_raw.mb56.gz 183.67MB Simrad multibeam vendor format
8053_20070426_044328_raw.mb56.gz 169.46MB Simrad multibeam vendor format
8054_20070426_081843_raw.mb56.gz 168.49MB Simrad multibeam vendor format
8055_20070426_120026_raw.mb56.gz 156.86MB Simrad multibeam vendor format
8056_20070426_152458_raw.mb56.gz 132.77MB Simrad multibeam vendor format
8057_20070428_092059_raw.mb56.gz 134.23MB Simrad multibeam vendor format
8058_20070428_120235_raw.mb56.gz 175.93MB Simrad multibeam vendor format
8059_20070428_160622_raw.mb56.gz 96.41MB Simrad multibeam vendor format
8059_20070428_182650_raw.mb56.gz 69.71MB Simrad multibeam vendor format
8060_20070428_201458_raw.mb56.gz 190.76MB Simrad multibeam vendor format
8061_20070429_013133_raw.mb56.gz 5.17MB Simrad multibeam vendor format
8062_20070429_014805_raw.mb56.gz 4.65MB Simrad multibeam vendor format
8063_20070429_020244_raw.mb56.gz 4.43MB Simrad multibeam vendor format
8064_20070429_021536_raw.mb56.gz 4.67MB Simrad multibeam vendor format
8065_20070429_022954_raw.mb56.gz 5.11MB Simrad multibeam vendor format
8066_20070429_024642_raw.mb56.gz 156.33MB Simrad multibeam vendor format
8067_20070429_072353_raw.mb56.gz 198.49MB Simrad multibeam vendor format
8068_20070430_203006_raw.mb56.gz 45.44MB Simrad multibeam vendor format
8069_20070430_220456_raw.mb56.gz 80.99MB Simrad multibeam vendor format
8070_20070501_004321_raw.mb56.gz 80.35MB Simrad multibeam vendor format
8071_20070501_030232_raw.mb56.gz 79.51MB Simrad multibeam vendor format
8072_20070501_052721_raw.mb56.gz 78.69MB Simrad multibeam vendor format
8073_20070501_074804_raw.mb56.gz 78.93MB Simrad multibeam vendor format
8074_20070501_193623_raw.mb56.gz 81.78MB Simrad multibeam vendor format
8075_20070501_220842_raw.mb56.gz 78.18MB Simrad multibeam vendor format
8076_20070502_003338_raw.mb56.gz 82.17MB Simrad multibeam vendor format
8077_20070502_025938_raw.mb56.gz 78.70MB Simrad multibeam vendor format
8078_20070502_052518_raw.mb56.gz 99.61MB Simrad multibeam vendor format
8079_20070502_082535_raw.mb56.gz 23.33MB Simrad multibeam vendor format
8080_20070502_091640_raw.mb56.gz 19.12MB Simrad multibeam vendor format
8081_20070502_101212_raw.mb56.gz 17.13MB Simrad multibeam vendor format
8082_20070502_105027_raw.mb56.gz 17.70MB Simrad multibeam vendor format
8083_20070502_112438_raw.mb56.gz 15.65MB Simrad multibeam vendor format
8084_20070502_115625_raw.mb56.gz 12.12MB Simrad multibeam vendor format
8085_20070502_122422_raw.mb56.gz 8.96MB Simrad multibeam vendor format
8086_20070502_124736_raw.mb56.gz 8.80MB Simrad multibeam vendor format
8087_20070502_132737_raw.mb56.gz 104.30MB Simrad multibeam vendor format
8088_20070502_163704_raw.mb56.gz 103.74MB Simrad multibeam vendor format
8089_20070502_194302_raw.mb56.gz 108.24MB Simrad multibeam vendor format
8090_20070502_225834_raw.mb56.gz 106.70MB Simrad multibeam vendor format
8091_20070503_022518_raw.mb56.gz 101.20MB Simrad multibeam vendor format
8092_20070503_054358_raw.mb56.gz 99.68MB Simrad multibeam vendor format
8093_20070503_092728_raw.mb56.gz 102.60MB Simrad multibeam vendor format
8094_20070503_141233_raw.mb56.gz 101.85MB Simrad multibeam vendor format
8095_20070503_171547_raw.mb56.gz 103.77MB Simrad multibeam vendor format
8096_20070503_202136_raw.mb56.gz 102.78MB Simrad multibeam vendor format
8097_20070503_233023_raw.mb56.gz 102.18MB Simrad multibeam vendor format
8098_20070504_024923_raw.mb56.gz 102.58MB Simrad multibeam vendor format
8099_20070504_055115_raw.mb56.gz 40.60MB Simrad multibeam vendor format
8100_20070504_211326_raw.mb56.gz 61.87MB Simrad multibeam vendor format
8101_20070504_231056_raw.mb56.gz 106.11MB Simrad multibeam vendor format
8102_20070505_022526_raw.mb56.gz 103.29MB Simrad multibeam vendor format
8103_20070505_053136_raw.mb56.gz 101.16MB Simrad multibeam vendor format
8104_20070505_083357_raw.mb56.gz 103.98MB Simrad multibeam vendor format
8105_20070505_113703_raw.mb56.gz 107.02MB Simrad multibeam vendor format
8106_20070505_150706_raw.mb56.gz 112.05MB Simrad multibeam vendor format
8107_20070505_182352_raw.mb56.gz 127.46MB Simrad multibeam vendor format
8108_20070505_220341_raw.mb56.gz 143.80MB Simrad multibeam vendor format
8109_20070506_021511_raw.mb56.gz 120.16MB Simrad multibeam vendor format
8110_20070506_054149_raw.mb56.gz 151.70MB Simrad multibeam vendor format
8111_20070506_100858_raw.mb56.gz 120.26MB Simrad multibeam vendor format
8112_20070506_133424_raw.mb56.gz 126.82MB Simrad multibeam vendor format
8113_20070506_170733_raw.mb56.gz 110.36MB Simrad multibeam vendor format
8114_20070506_201557_raw.mb56.gz 114.39MB Simrad multibeam vendor format
8115_20070506_233418_raw.mb56.gz 105.19MB Simrad multibeam vendor format
8116_20070507_023912_raw.mb56.gz 111.32MB Simrad multibeam vendor format
8117_20070507_054829_raw.mb56.gz 109.34MB Simrad multibeam vendor format
8118_20070507_085220_raw.mb56.gz 136.93MB Simrad multibeam vendor format
8119_20070507_125050_raw.mb56.gz 119.42MB Simrad multibeam vendor format
8120_20070507_160835_raw.mb56.gz 7.98MB Simrad multibeam vendor format
8121_20070507_162643_raw.mb56.gz 6.94MB Simrad multibeam vendor format
8122_20070507_164707_raw.mb56.gz 11.60MB Simrad multibeam vendor format
8123_20070507_171132_raw.mb56.gz 7.23MB Simrad multibeam vendor format
8124_20070507_172811_raw.mb56.gz 6.96MB Simrad multibeam vendor format
8125_20070507_174626_raw.mb56.gz 7.09MB Simrad multibeam vendor format
8126_20070507_181610_raw.mb56.gz 7.74MB Simrad multibeam vendor format
8127_20070507_185025_raw.mb56.gz 15.17MB Simrad multibeam vendor format
8128_20070507_192815_raw.mb56.gz 10.52MB Simrad multibeam vendor format
8129_20070507_195045_raw.mb56.gz 9.68MB Simrad multibeam vendor format
8131_20070507_201901_raw.mb56.gz 123.20MB Simrad multibeam vendor format
8132_20070507_235638_raw.mb56.gz 137.94MB Simrad multibeam vendor format
8133_20070508_034720_raw.mb56.gz 151.20MB Simrad multibeam vendor format
8134_20070508_080523_raw.mb56.gz 108.56MB Simrad multibeam vendor format
8135_20070508_111516_raw.mb56.gz 21.55MB Simrad multibeam vendor format
8136_20070508_115847_raw.mb56.gz 16.04MB Simrad multibeam vendor format
8137_20070508_123748_raw.mb56.gz 120.78MB Simrad multibeam vendor format
8138_20070508_155526_raw.mb56.gz 105.40MB Simrad multibeam vendor format
8139_20070508_191727_raw.mb56.gz 105.72MB Simrad multibeam vendor format
8140_20070508_220907_raw.mb56.gz 96.95MB Simrad multibeam vendor format
8141_20070509_004700_raw.mb56.gz 102.30MB Simrad multibeam vendor format
8142_20070509_034047_raw.mb56.gz 99.68MB Simrad multibeam vendor format
8143_20070509_062542_raw.mb56.gz 96.63MB Simrad multibeam vendor format
8144_20070509_091007_raw.mb56.gz 90.77MB Simrad multibeam vendor format
8145_20070509_113805_raw.mb56.gz 83.66MB Simrad multibeam vendor format
8146_20070509_135947_raw.mb56.gz 88.72MB Simrad multibeam vendor format
8147_20070509_163023_raw.mb56.gz 6.32MB Simrad multibeam vendor format
8148_20070509_164619_raw.mb56.gz 6.21MB Simrad multibeam vendor format
8149_20070509_170021_raw.mb56.gz 7.73MB Simrad multibeam vendor format
8150_20070509_171633_raw.mb56.gz 7.29MB Simrad multibeam vendor format
8151_20070509_175112_raw.mb56.gz 15.98MB Simrad multibeam vendor format
8152_20070509_182309_raw.mb56.gz 18.01MB Simrad multibeam vendor format
8153_20070510_100821_raw.mb56.gz 81.11MB Simrad multibeam vendor format
8154_20070510_122121_raw.mb56.gz 25.29MB Simrad multibeam vendor format
8155_20070510_133603_raw.mb56.gz 67.89MB Simrad multibeam vendor format
8156_20070510_155118_raw.mb56.gz 83.91MB Simrad multibeam vendor format
8157_20070510_185325_raw.mb56.gz 95.58MB Simrad multibeam vendor format
8158_20070510_215228_raw.mb56.gz 80.18MB Simrad multibeam vendor format
8159_20070511_003229_raw.mb56.gz 64.99MB Simrad multibeam vendor format
8160_20070511_030008_raw.mb56.gz 60.48MB Simrad multibeam vendor format
8161_20070511_050326_raw.mb56.gz 35.46MB Simrad multibeam vendor format
8162_20070511_064530_raw.mb56.gz 91.20MB Simrad multibeam vendor format
8163_20070511_091427_raw.mb56.gz 82.63MB Simrad multibeam vendor format
8164_20070511_113314_raw.mb56.gz 90.75MB Simrad multibeam vendor format
8165_20070511_140148_raw.mb56.gz 82.43MB Simrad multibeam vendor format
8166_20070511_162109_raw.mb56.gz 84.82MB Simrad multibeam vendor format
8167_20070511_184319_raw.mb56.gz 80.77MB Simrad multibeam vendor format
8168_20070511_210017_raw.mb56.gz 83.15MB Simrad multibeam vendor format
8169_20070511_231805_raw.mb56.gz 79.20MB Simrad multibeam vendor format
8170_20070512_013524_raw.mb56.gz 79.07MB Simrad multibeam vendor format
8171_20070512_040720_raw.mb56.gz 7.00MB Simrad multibeam vendor format
8172_20070512_042508_raw.mb56.gz 4.95MB Simrad multibeam vendor format
8173_20070512_044012_raw.mb56.gz 3.59MB Simrad multibeam vendor format
8174_20070512_045252_raw.mb56.gz 6.44MB Simrad multibeam vendor format
8175_20070512_050908_raw.mb56.gz 3.63MB Simrad multibeam vendor format
8176_20070512_052010_raw.mb56.gz 4.20MB Simrad multibeam vendor format
8177_20070512_053206_raw.mb56.gz 3.03MB Simrad multibeam vendor format
8178_20070512_054216_raw.mb56.gz 3.21MB Simrad multibeam vendor format
8179_20070512_055143_raw.mb56.gz 2.93MB Simrad multibeam vendor format
8180_20070512_060146_raw.mb56.gz 2.28MB Simrad multibeam vendor format
8181_20070512_061417_raw.mb56.gz 0.81MB Simrad multibeam vendor format
8182_20070512_062759_raw.mb56.gz 58.08MB Simrad multibeam vendor format

Metadata Files: 1

Files File Size Description
CE07_01_Multibeam.xml NGDC created ISO metadata